When you browse on this site, cookies collect data to enhance your experience and personalize the content and advertising you see.
Visit our Privacy Policy to learn more. By continuing to use the site, you agree to this use of cookies and data.
  • In United Kingdom
  • List of Countries
  • For 7 days
  • Water Temperature
  • Satellite Maps
  • Weather Map
  • Weather Widgets
  • user-avatar
    Login

    Hourly Weather Świebodzice

    Today, 16 June, Sunday

    Time Temperature Precipitation Wind Pressure Humidity
    00:00 +20°C° 0.2 mm 3 mps 737 mmHg 91%
    01:00 +19°C° 0 mm 2 mps 737 mmHg 92%
    02:00 +19°C° 0.1 mm 2 mps 737 mmHg 93%
    03:00 +19°C° 0.1 mm 2 mps 737 mmHg 95%
    04:00 +19°C° 0.1 mm 2 mps 737 mmHg 97%
    05:00 +19°C° 0.1 mm 3 mps 737 mmHg 95%
    06:00 +19°C° 0.1 mm 3 mps 738 mmHg 94%
    07:00 +20°C° 0.1 mm 4 mps 738 mmHg 93%
    08:00 +20°C° 0.1 mm 4 mps 738 mmHg 90%
    09:00 +20°C° 0.1 mm 4 mps 739 mmHg 88%
    10:00 +20°C° 0.1 mm 4 mps 739 mmHg 85%
    11:00 +20°C° 0.2 mm 5 mps 739 mmHg 85%
    12:00 +19°C° 0.2 mm 5 mps 739 mmHg 84%
    13:00 +19°C° 0.2 mm 5 mps 740 mmHg 84%
    14:00 +17°C° 0.1 mm 5 mps 740 mmHg 84%
    15:00 +18°C° 0.1 mm 4 mps 740 mmHg 84%
    16:00 +17°C° 0.1 mm 4 mps 740 mmHg 84%
    17:00 +17°C° 0 mm 3 mps 740 mmHg 83%
    18:00 +17°C° 0 mm 2 mps 740 mmHg 82%
    19:00 +17°C° 0 mm 2 mps 740 mmHg 81%
    20:00 +17°C° 0 mm 2 mps 741 mmHg 80%
    21:00 +16°C° 0 mm 1 mps 741 mmHg 79%
    22:00 +16°C° 0 mm 1 mps 741 mmHg 78%
    23:00 +16°C° 0 mm 2 mps 741 mmHg 79%

    Tomorrow, 17 June, Monday

    Time Temperature Precipitation Wind Pressure Humidity
    00:00 +16°C° 0 mm 2 mps 742 mmHg 81%
    01:00 +16°C° 0 mm 2 mps 742 mmHg 82%
    02:00 +15°C° 0 mm 2 mps 742 mmHg 85%
    03:00 +15°C° 0 mm 2 mps 742 mmHg 87%
    04:00 +14°C° 0 mm 1 mps 742 mmHg 90%
    05:00 +16°C° 0 mm 1 mps 742 mmHg 85%
    06:00 +18°C° 0 mm 1 mps 742 mmHg 81%
    07:00 +19°C° 0 mm 1 mps 743 mmHg 76%
    08:00 +19°C° 0 mm 2 mps 743 mmHg 71%
    09:00 +20°C° 0 mm 2 mps 742 mmHg 65%
    10:00 +21°C° 0 mm 3 mps 742 mmHg 60%
    11:00 +22°C° 0 mm 3 mps 742 mmHg 57%
    12:00 +22°C° 0 mm 3 mps 742 mmHg 55%
    13:00 +24°C° 0 mm 3 mps 742 mmHg 53%
    14:00 +24°C° 0 mm 3 mps 742 mmHg 54%
    15:00 +24°C° 0 mm 3 mps 741 mmHg 55%
    16:00 +24°C° 0 mm 3 mps 741 mmHg 56%
    17:00 +22°C° 0 mm 3 mps 741 mmHg 63%
    18:00 +21°C° 0 mm 2 mps 740 mmHg 70%
    19:00 +19°C° 0 mm 2 mps 740 mmHg 77%
    20:00 +18°C° 0 mm 2 mps 740 mmHg 80%
    21:00 +18°C° 0 mm 1 mps 741 mmHg 84%
    22:00 +15°C° 0 mm 1 mps 741 mmHg 87%
    23:00 +15°C° 0 mm 1 mps 741 mmHg 88%

    Day after tomorrow, 18 June, Tuesday

    Time Temperature Precipitation Wind Pressure Humidity
    00:00 +15°C° 0 mm 1 mps 740 mmHg 89%
    01:00 +14°C° 0 mm 1 mps 740 mmHg 89%
    02:00 +14°C° 0 mm 1 mps 740 mmHg 91%
    03:00 +13°C° 0 mm 0 mps 740 mmHg 92%
    04:00 +13°C° 0 mm 0 mps 740 mmHg 94%
    05:00 +15°C° 0 mm 1 mps 740 mmHg 91%
    06:00 +18°C° 0 mm 1 mps 740 mmHg 89%
    07:00 +18°C° 0 mm 2 mps 740 mmHg 86%
    08:00 +19°C° 0 mm 2 mps 740 mmHg 82%
    09:00 +21°C° 0 mm 3 mps 740 mmHg 78%
    10:00 +22°C° 0 mm 4 mps 740 mmHg 74%
    11:00 +22°C° 0 mm 3 mps 739 mmHg 71%
    12:00 +24°C° 0 mm 3 mps 739 mmHg 69%
    13:00 +25°C° 0 mm 3 mps 738 mmHg 66%
    14:00 +26°C° 0 mm 3 mps 738 mmHg 65%
    15:00 +26°C° 0 mm 3 mps 738 mmHg 64%
    16:00 +26°C° 0 mm 3 mps 738 mmHg 63%
    17:00 +25°C° 0 mm 3 mps 737 mmHg 70%
    18:00 +24°C° 0 mm 2 mps 737 mmHg 76%
    19:00 +24°C° 0 mm 2 mps 737 mmHg 82%
    20:00 +21°C° 0 mm 2 mps 737 mmHg 85%
    21:00 +21°C° 0 mm 1 mps 737 mmHg 88%
    22:00 +20°C° 0 mm 1 mps 737 mmHg 91%
    23:00 +20°C° 0 mm 1 mps 737 mmHg 91%

    19 June, Wednesday

    Time Temperature Precipitation Wind Pressure Humidity
    00:00 +19°C° 0 mm 1 mps 736 mmHg 92%
    01:00 +19°C° 0 mm 1 mps 736 mmHg 92%
    02:00 +19°C° 0 mm 1 mps 736 mmHg 92%
    03:00 +16°C° 0 mm 0 mps 736 mmHg 92%
    04:00 +16°C° 0 mm 0 mps 736 mmHg 92%
    05:00 +20°C° 0 mm 1 mps 736 mmHg 89%
    06:00 +21°C° 0 mm 1 mps 736 mmHg 85%
    07:00 +23°C° 0 mm 1 mps 736 mmHg 82%
    08:00 +24°C° 0.3 mm 1 mps 736 mmHg 79%
    09:00 +24°C° 0.3 mm 2 mps 736 mmHg 77%
    10:00 +25°C° 0.3 mm 2 mps 736 mmHg 75%
    11:00 +26°C° 0.1 mm 2 mps 735 mmHg 68%
    12:00 +27°C° 0.1 mm 2 mps 735 mmHg 61%
    13:00 +29°C° 0.1 mm 2 mps 735 mmHg 55%
    14:00 +29°C° 0.3 mm 2 mps 735 mmHg 56%
    15:00 +29°C° 0.3 mm 2 mps 735 mmHg 58%
    16:00 +29°C° 0.3 mm 2 mps 734 mmHg 60%
    17:00 +27°C° 0.3 mm 2 mps 734 mmHg 66%
    18:00 +26°C° 0.3 mm 1 mps 734 mmHg 72%
    19:00 +24°C° 0.3 mm 1 mps 734 mmHg 79%
    20:00 +23°C° 0 mm 2 mps 734 mmHg 79%
    21:00 +21°C° 0 mm 2 mps 734 mmHg 80%
    22:00 +20°C° 0 mm 2 mps 734 mmHg 81%
    23:00 +20°C° 0 mm 2 mps 734 mmHg 82%

    20 June, Thursday

    Time Temperature Precipitation Wind Pressure Humidity
    00:00 +20°C° 0 mm 2 mps 734 mmHg 83%
    01:00 +19°C° 0 mm 2 mps 734 mmHg 83%
    02:00 +19°C° 0 mm 2 mps 734 mmHg 83%
    03:00 +19°C° 0 mm 2 mps 734 mmHg 84%
    04:00 +19°C° 0 mm 2 mps 734 mmHg 84%
    05:00 +22°C° 0 mm 1 mps 734 mmHg 81%
    06:00 +23°C° 0 mm 1 mps 735 mmHg 78%
    07:00 +25°C° 0 mm 1 mps 735 mmHg 75%
    08:00 +26°C° 0 mm 1 mps 735 mmHg 67%
    09:00 +28°C° 0 mm 1 mps 735 mmHg 60%
    10:00 +29°C° 0 mm 1 mps 736 mmHg 53%
    11:00 +30°C° 0 mm 1 mps 736 mmHg 51%
    12:00 +30°C° 0 mm 1 mps 735 mmHg 49%
    13:00 +30°C° 0 mm 2 mps 735 mmHg 48%
    14:00 +30°C° 0.4 mm 1 mps 735 mmHg 52%
    15:00 +29°C° 0.4 mm 1 mps 735 mmHg 57%
    16:00 +28°C° 0.4 mm 1 mps 735 mmHg 61%
    17:00 +27°C° 0.1 mm 1 mps 735 mmHg 66%
    18:00 +26°C° 0.1 mm 1 mps 735 mmHg 70%
    19:00 +25°C° 0.1 mm 1 mps 735 mmHg 74%
    20:00 +24°C° 0.2 mm 1 mps 736 mmHg 75%
    21:00 +23°C° 0.2 mm 1 mps 736 mmHg 77%
    22:00 +21°C° 0.2 mm 1 mps 736 mmHg 79%
    23:00 +21°C° 0.2 mm 1 mps 736 mmHg 82%

    21 June, Friday

    Time Temperature Precipitation Wind Pressure Humidity
    00:00 +20°C° 0.2 mm 1 mps 736 mmHg 85%
    01:00 +19°C° 0.2 mm 1 mps 736 mmHg 88%
    02:00 +19°C° 0 mm 1 mps 736 mmHg 89%
    03:00 +19°C° 0 mm 1 mps 736 mmHg 91%
    04:00 +18°C° 0 mm 1 mps 736 mmHg 93%
    05:00 +19°C° 0 mm 1 mps 737 mmHg 90%
    06:00 +21°C° 0 mm 1 mps 737 mmHg 87%
    07:00 +22°C° 0 mm 1 mps 737 mmHg 84%
    08:00 +23°C° 0.2 mm 1 mps 737 mmHg 80%
    09:00 +25°C° 0.2 mm 2 mps 737 mmHg 77%
    10:00 +26°C° 0.2 mm 2 mps 737 mmHg 73%
    11:00 +27°C° 1 mm 2 mps 737 mmHg 71%
    12:00 +27°C° 1 mm 2 mps 736 mmHg 68%
    13:00 +28°C° 1 mm 2 mps 736 mmHg 66%
    14:00 +28°C° 0.7 mm 2 mps 736 mmHg 67%
    15:00 +28°C° 0.7 mm 2 mps 736 mmHg 69%
    16:00 +27°C° 0.7 mm 1 mps 735 mmHg 70%
    17:00 +26°C° 0.5 mm 1 mps 735 mmHg 76%
    18:00 +24°C° 0.5 mm 1 mps 735 mmHg 82%
    19:00 +23°C° 0.5 mm 2 mps 735 mmHg 89%
    20:00 +21°C° 0.1 mm 2 mps 735 mmHg 91%
    21:00 +20°C° 0.1 mm 3 mps 736 mmHg 94%
    22:00 +19°C° 0.1 mm 3 mps 736 mmHg 97%
    23:00 +18°C° 0 mm 3 mps 736 mmHg 96%
    Show more